• In Belarus
  • List of Countries
  • For 7 days
  • Water Temperature
  • Weather Map
  • Weather Widgets
  • user-avatar
    Login

    Hourly Weather Bridgetown

    Today, 19 January, Sunday

    Time Temperature Precipitation Wind Pressure Humidity
    00:00 +27°C° 0 mm 9 mps 761 mmHg 78%
    01:00 +27°C° 0 mm 9 mps 761 mmHg 78%
    02:00 +27°C° 0 mm 9 mps 761 mmHg 78%
    03:00 +27°C° 0 mm 9 mps 761 mmHg 78%
    04:00 +26°C° 0 mm 9 mps 761 mmHg 77%
    05:00 +26°C° 0 mm 9 mps 760 mmHg 76%
    06:00 +27°C° 0 mm 9 mps 761 mmHg 76%
    07:00 +27°C° 0 mm 9 mps 761 mmHg 76%
    08:00 +27°C° 0 mm 9 mps 761 mmHg 76%
    09:00 +27°C° 0 mm 9 mps 762 mmHg 74%
    10:00 +28°C° 0 mm 8 mps 762 mmHg 73%
    11:00 +28°C° 0 mm 8 mps 763 mmHg 72%
    12:00 +28°C° 0 mm 8 mps 762 mmHg 71%
    13:00 +28°C° 0 mm 8 mps 761 mmHg 71%
    14:00 +29°C° 0 mm 8 mps 760 mmHg 70%
    15:00 +28°C° 0 mm 8 mps 760 mmHg 73%
    16:00 +28°C° 0 mm 8 mps 760 mmHg 75%
    17:00 +28°C° 0 mm 8 mps 760 mmHg 77%
    18:00 +27°C° 0 mm 8 mps 760 mmHg 79%
    19:00 +27°C° 0 mm 8 mps 761 mmHg 81%
    20:00 +27°C° 0 mm 8 mps 761 mmHg 82%
    21:00 +27°C° 0 mm 8 mps 761 mmHg 83%
    22:00 +27°C° 0 mm 8 mps 761 mmHg 83%
    23:00 +27°C° 0 mm 9 mps 761 mmHg 83%

    Tomorrow, 20 January, Monday

    Time Temperature Precipitation Wind Pressure Humidity
    00:00 +27°C° 0.1 mm 9 mps 761 mmHg 83%
    01:00 +27°C° 0.1 mm 9 mps 760 mmHg 83%
    02:00 +27°C° 0.1 mm 9 mps 760 mmHg 83%
    03:00 +27°C° 0.1 mm 8 mps 760 mmHg 83%
    04:00 +27°C° 0.1 mm 8 mps 760 mmHg 83%
    05:00 +27°C° 0.1 mm 8 mps 760 mmHg 83%
    06:00 +27°C° 0.1 mm 8 mps 760 mmHg 82%
    07:00 +27°C° 0.1 mm 8 mps 761 mmHg 81%
    08:00 +28°C° 0.1 mm 8 mps 761 mmHg 79%
    09:00 +28°C° 0.1 mm 8 mps 761 mmHg 77%
    10:00 +29°C° 0.1 mm 8 mps 762 mmHg 75%
    11:00 +29°C° 0.1 mm 7 mps 762 mmHg 73%
    12:00 +29°C° 0.1 mm 7 mps 761 mmHg 74%
    13:00 +29°C° 0.1 mm 7 mps 761 mmHg 74%
    14:00 +29°C° 0.1 mm 7 mps 760 mmHg 75%
    15:00 +29°C° 0.1 mm 7 mps 760 mmHg 76%
    16:00 +28°C° 0.1 mm 6 mps 760 mmHg 77%
    17:00 +28°C° 0.1 mm 6 mps 759 mmHg 78%
    18:00 +28°C° 0.1 mm 6 mps 760 mmHg 79%
    19:00 +27°C° 0.1 mm 7 mps 760 mmHg 81%
    20:00 +27°C° 0.1 mm 7 mps 760 mmHg 82%
    21:00 +27°C° 0.2 mm 7 mps 760 mmHg 82%
    22:00 +27°C° 0.2 mm 7 mps 760 mmHg 81%
    23:00 +27°C° 0.2 mm 8 mps 760 mmHg 81%

    Day after tomorrow, 21 January, Tuesday

    Time Temperature Precipitation Wind Pressure Humidity
    00:00 +27°C° 0.1 mm 8 mps 760 mmHg 81%
    01:00 +27°C° 0.1 mm 8 mps 760 mmHg 81%
    02:00 +27°C° 0.1 mm 8 mps 759 mmHg 82%
    03:00 +27°C° 0.2 mm 8 mps 759 mmHg 81%
    04:00 +27°C° 0.2 mm 8 mps 759 mmHg 80%
    05:00 +27°C° 0.2 mm 8 mps 759 mmHg 80%
    06:00 +27°C° 0.1 mm 8 mps 760 mmHg 79%
    07:00 +27°C° 0.1 mm 8 mps 760 mmHg 79%
    08:00 +28°C° 0.1 mm 8 mps 761 mmHg 79%
    09:00 +28°C° 0.3 mm 8 mps 761 mmHg 77%
    10:00 +28°C° 0.3 mm 8 mps 761 mmHg 76%
    11:00 +29°C° 0.3 mm 8 mps 761 mmHg 74%
    12:00 +29°C° 0.2 mm 8 mps 760 mmHg 74%
    13:00 +29°C° 0.2 mm 7 mps 760 mmHg 75%
    14:00 +28°C° 0.2 mm 7 mps 759 mmHg 75%
    15:00 +28°C° 0 mm 7 mps 759 mmHg 76%
    16:00 +28°C° 0 mm 7 mps 758 mmHg 78%
    17:00 +27°C° 0 mm 7 mps 758 mmHg 80%
    18:00 +27°C° 0 mm 7 mps 758 mmHg 81%
    19:00 +27°C° 0 mm 6 mps 759 mmHg 82%
    20:00 +27°C° 0 mm 6 mps 759 mmHg 84%
    21:00 +27°C° 0 mm 6 mps 759 mmHg 83%
    22:00 +27°C° 0 mm 6 mps 759 mmHg 83%
    23:00 +27°C° 0 mm 6 mps 759 mmHg 83%

    22 January, Wednesday

    Time Temperature Precipitation Wind Pressure Humidity
    00:00 +26°C° 0.1 mm 6 mps 759 mmHg 84%
    01:00 +26°C° 0.1 mm 6 mps 758 mmHg 84%
    02:00 +26°C° 0.1 mm 6 mps 758 mmHg 85%
    03:00 +26°C° 0.3 mm 6 mps 758 mmHg 85%
    04:00 +26°C° 0.3 mm 6 mps 758 mmHg 85%
    05:00 +26°C° 0.3 mm 6 mps 758 mmHg 84%
    06:00 +27°C° 0.3 mm 6 mps 759 mmHg 82%
    07:00 +27°C° 0.3 mm 5 mps 759 mmHg 80%
    08:00 +27°C° 0.3 mm 5 mps 760 mmHg 78%
    09:00 +28°C° 0.2 mm 5 mps 760 mmHg 76%
    10:00 +28°C° 0.2 mm 5 mps 760 mmHg 74%
    11:00 +29°C° 0.2 mm 5 mps 760 mmHg 72%
    12:00 +29°C° 0.2 mm 5 mps 759 mmHg 72%
    13:00 +29°C° 0.2 mm 5 mps 759 mmHg 72%
    14:00 +29°C° 0.2 mm 4 mps 758 mmHg 71%
    15:00 +28°C° 0.2 mm 4 mps 758 mmHg 73%
    16:00 +28°C° 0.2 mm 4 mps 758 mmHg 74%
    17:00 +28°C° 0.2 mm 4 mps 758 mmHg 75%
    18:00 +27°C° 0 mm 4 mps 758 mmHg 76%
    19:00 +27°C° 0 mm 4 mps 758 mmHg 78%
    20:00 +27°C° 0 mm 4 mps 759 mmHg 80%
    21:00 +27°C° 0 mm 3 mps 759 mmHg 80%
    22:00 +27°C° 0 mm 3 mps 759 mmHg 80%
    23:00 +26°C° 0 mm 3 mps 759 mmHg 81%

    23 January, Thursday

    Time Temperature Precipitation Wind Pressure Humidity
    00:00 +26°C° 0.1 mm 3 mps 758 mmHg 80%
    01:00 +26°C° 0.1 mm 3 mps 758 mmHg 80%
    02:00 +26°C° 0.1 mm 4 mps 757 mmHg 79%
    03:00 +26°C° 0 mm 4 mps 757 mmHg 80%
    04:00 +26°C° 0 mm 4 mps 757 mmHg 81%
    05:00 +26°C° 0 mm 4 mps 757 mmHg 82%
    06:00 +27°C° 0.1 mm 4 mps 758 mmHg 80%
    07:00 +27°C° 0.1 mm 4 mps 759 mmHg 78%
    08:00 +28°C° 0.1 mm 4 mps 759 mmHg 76%
    09:00 +28°C° 0.6 mm 4 mps 759 mmHg 75%
    10:00 +28°C° 0.6 mm 4 mps 760 mmHg 75%
    11:00 +28°C° 0.6 mm 4 mps 760 mmHg 75%
    12:00 +28°C° 1.3 mm 3 mps 759 mmHg 77%
    13:00 +27°C° 1.3 mm 3 mps 759 mmHg 79%
    14:00 +27°C° 1.3 mm 3 mps 758 mmHg 82%
    15:00 +27°C° 1 mm 3 mps 758 mmHg 81%
    16:00 +27°C° 1 mm 3 mps 758 mmHg 80%
    17:00 +27°C° 1 mm 3 mps 758 mmHg 79%
    18:00 +27°C° 0.4 mm 3 mps 758 mmHg 80%
    19:00 +27°C° 0.4 mm 3 mps 758 mmHg 82%
    20:00 +26°C° 0.4 mm 3 mps 759 mmHg 83%
    21:00 +27°C° 0.3 mm 4 mps 759 mmHg 83%
    22:00 +27°C° 0.3 mm 5 mps 759 mmHg 83%
    23:00 +27°C° 0.3 mm 6 mps 759 mmHg 83%

    24 January, Friday

    Time Temperature Precipitation Wind Pressure Humidity
    00:00 +27°C° 0.4 mm 6 mps 759 mmHg 84%
    01:00 +27°C° 0.4 mm 6 mps 758 mmHg 84%
    02:00 +26°C° 0.4 mm 5 mps 758 mmHg 85%
    03:00 +26°C° 0.4 mm 6 mps 758 mmHg 84%
    04:00 +27°C° 0.4 mm 6 mps 758 mmHg 84%
    05:00 +27°C° 0.4 mm 6 mps 758 mmHg 84%
    06:00 +27°C° 0.1 mm 6 mps 758 mmHg 82%
    07:00 +27°C° 0.1 mm 6 mps 759 mmHg 81%
    08:00 +28°C° 0.1 mm 6 mps 760 mmHg 80%
    09:00 +28°C° 0 mm 6 mps 760 mmHg 79%
    10:00 +28°C° 0 mm 6 mps 760 mmHg 78%
    11:00 +29°C° 0 mm 7 mps 760 mmHg 76%
    12:00 +29°C° 0.1 mm 6 mps 760 mmHg 75%
    13:00 +29°C° 0.1 mm 6 mps 759 mmHg 74%
    14:00 +29°C° 0.1 mm 5 mps 759 mmHg 73%
    15:00 +28°C° 0.1 mm 5 mps 759 mmHg 74%
    16:00 +28°C° 0.1 mm 5 mps 758 mmHg 76%
    17:00 +28°C° 0.1 mm 5 mps 758 mmHg 77%
    18:00 +28°C° 0 mm 5 mps 759 mmHg 78%
    19:00 +27°C° 0 mm 5 mps 759 mmHg 79%
    20:00 +27°C° 0 mm 5 mps 759 mmHg 80%
    21:00 +27°C° 0 mm 4 mps 760 mmHg 80%
    22:00 +27°C° 0 mm 4 mps 760 mmHg 79%
    23:00 +27°C° 0 mm 4 mps 760 mmHg 78%
    Show more